TA2CD-18 Weather Reports


time (UTC)temp
F
wind
direction
speed
knots
gust
knots
rain 1hr
in
rain 24hr
in
rain mn
in
humidity
%
barometer
mb
20260906090002 85 0 0.0 0.0 0.00 0.00 0.00 51 1011.0
20260906083002 83 0 0.0 0.0 0.00 0.00 0.00 53 1010.8
20260906080005 82 0 0.0 0.0 0.00 0.00 0.00 53 1010.8
20260906073004 80 0 0.0 0.0 0.00 0.00 0.00 54 1010.8
20260906070003 80 0 0.0 0.0 0.00 0.00 0.00 55 1010.4
20260906063003 78 0 0.0 0.0 0.00 0.00 0.00 57 1010.1
20260906060006 76 0 0.0 0.0 0.00 0.00 0.00 59 1010.1
20260906053002 73 0 0.0 0.0 0.00 0.00 0.00 62 1009.9
20260906050005 72 0 0.0 0.0 0.00 0.00 0.00 64 1009.9
20260906043002 70 0 0.0 0.0 0.00 0.00 0.00 67 1009.7
20260906040002 70 0 0.0 0.0 0.00 0.00 0.00 67 1009.4
20260906033003 70 0 0.0 0.0 0.00 0.00 0.00 68 1009.3
20260906030004 70 0 0.0 0.0 0.00 0.00 0.00 69 1009.1
20260906023003 71 0 0.0 0.0 0.00 0.00 0.00 69 1008.8
20260906020003 71 0 0.0 0.0 0.00 0.00 0.00 69 1008.9
20260906013003 71 0 0.0 0.0 0.00 0.00 0.00 68 1008.7
20260906010005 72 0 0.0 0.0 0.00 0.00 0.00 67 1008.6
20260906003002 72 0 0.0 0.0 0.00 0.00 0.00 67 1008.6
20260906000003 72 0 0.0 0.0 0.00 0.00 0.00 67 1008.6
20260905233003 73 0 0.0 0.0 0.00 0.00 0.00 66 1008.8
20260905230005 73 0 0.0 0.0 0.00 0.00 0.00 66 1008.8
20260905223004 73 0 0.0 0.0 0.00 0.00 0.00 66 1008.9
20260905220004 73 0 0.0 0.0 0.00 0.00 0.00 66 1009.1
20260905213003 74 0 0.0 0.0 0.00 0.00 0.00 65 1009.2
20260905210005 74 0 0.0 0.0 0.00 0.00 0.00 65 1009.2
20260905203004 74 0 0.0 0.0 0.00 0.00 0.00 63 1009.4
20260905200002 75 0 0.0 0.0 0.00 0.00 0.00 61 1009.5
20260905193003 75 0 0.0 0.0 0.00 0.00 0.00 59 1009.5
20260905190004 76 0 0.0 0.0 0.00 0.00 0.00 57 1009.7
20260905183003 77 0 0.0 0.0 0.00 0.00 0.00 54 1009.7
20260905180003 78 0 0.0 0.0 0.00 0.00 0.00 50 1009.5
20260905173006 80 0 0.0 0.0 0.00 0.00 0.00 44 1009.2
20260905170003 81 0 0.0 0.0 0.00 0.00 0.00 41 1009.1
20260905163004 83 0 0.0 0.0 0.00 0.00 0.00 38 1008.9
20260905160003 85 0 0.0 0.0 0.00 0.00 0.00 35 1008.8
20260905153004 86 0 0.0 0.0 0.00 0.00 0.00 33 1008.8
20260905150004 91 0 0.0 0.0 0.00 0.00 0.00 28 1008.7
20260905143004 97 0 0.0 0.0 0.00 0.00 0.00 25 1008.8
20260905140004 100 0 0.0 0.0 0.00 0.00 0.00 25 1008.8
20260905133004 102 0 0.0 0.0 0.00 0.00 0.00 23 1008.9
20260905130002 103 0 0.0 0.0 0.00 0.00 0.00 22 1009.0
20260905123003 103 0 0.0 0.0 0.00 0.00 0.00 23 1009.3
20260905120003 92 0 0.0 0.0 0.00 0.00 0.00 31 1009.5
20260905113002 91 0 0.0 0.0 0.00 0.00 0.00 33 1009.7
20260905110003 91 0 0.0 0.0 0.00 0.00 0.00 32 1010.0
20260905103004 91 0 0.0 0.0 0.00 0.00 0.00 32 1010.3
20260905100004 90 0 0.0 0.0 0.00 0.00 0.00 34 1010.4
20260905093003 87 0 0.0 0.0 0.00 0.00 0.00 36 1010.6